• In Hungary
  • List of Countries
  • For 7 days
  • Water Temperature
  • Satellite Maps
  • Weather Map
  • News
  • Weather Widgets
  • user-avatar
    Login

    Hourly Weather Santa Cruz

    Today, 20 October, Friday

    Time Temperature Precipitation Wind Pressure Humidity
    00:00 +25°C° 0.5 mm 2 mps 722 mmHg 90%
    01:00 +24°C° 0.5 mm 2 mps 722 mmHg 90%
    02:00 +24°C° 0.5 mm 2 mps 721 mmHg 90%
    03:00 +24°C° 0.4 mm 1 mps 721 mmHg 90%
    04:00 +24°C° 0.4 mm 1 mps 721 mmHg 91%
    05:00 +24°C° 0.4 mm 1 mps 721 mmHg 91%
    06:00 +24°C° 0.3 mm 1 mps 721 mmHg 89%
    07:00 +24°C° 0.3 mm 1 mps 722 mmHg 87%
    08:00 +25°C° 0.3 mm 1 mps 722 mmHg 84%
    09:00 +27°C° 0 mm 2 mps 722 mmHg 74%
    10:00 +29°C° 0 mm 2 mps 722 mmHg 64%
    11:00 +31°C° 0 mm 3 mps 722 mmHg 54%
    12:00 +34°C° 0 mm 4 mps 721 mmHg 50%
    13:00 +35°C° 0 mm 5 mps 720 mmHg 46%
    14:00 +36°C° 0 mm 6 mps 719 mmHg 42%
    15:00 +35°C° 0 mm 6 mps 718 mmHg 44%
    16:00 +34°C° 0 mm 6 mps 718 mmHg 47%
    17:00 +33°C° 0 mm 5 mps 718 mmHg 49%
    18:00 +32°C° 0 mm 5 mps 718 mmHg 54%
    19:00 +30°C° 0 mm 4 mps 718 mmHg 58%
    20:00 +29°C° 0 mm 4 mps 719 mmHg 63%
    21:00 +28°C° 0 mm 4 mps 719 mmHg 65%
    22:00 +28°C° 0 mm 4 mps 719 mmHg 67%
    23:00 +27°C° 0 mm 4 mps 719 mmHg 70%

    Tomorrow, 21 October, Saturday

    Time Temperature Precipitation Wind Pressure Humidity
    00:00 +27°C° 0 mm 4 mps 719 mmHg 70%
    01:00 +27°C° 0 mm 4 mps 718 mmHg 70%
    02:00 +27°C° 0 mm 4 mps 718 mmHg 70%
    03:00 +27°C° 0 mm 4 mps 718 mmHg 70%
    04:00 +26°C° 0 mm 4 mps 718 mmHg 71%
    05:00 +26°C° 0 mm 4 mps 718 mmHg 71%
    06:00 +27°C° 0 mm 5 mps 719 mmHg 67%
    07:00 +29°C° 0 mm 5 mps 719 mmHg 63%
    08:00 +30°C° 0 mm 5 mps 720 mmHg 59%
    09:00 +33°C° 0 mm 5 mps 720 mmHg 52%
    10:00 +35°C° 0 mm 6 mps 721 mmHg 46%
    11:00 +38°C° 0 mm 6 mps 721 mmHg 39%
    12:00 +38°C° 0 mm 6 mps 721 mmHg 37%
    13:00 +39°C° 0 mm 5 mps 720 mmHg 36%
    14:00 +40°C° 0 mm 5 mps 720 mmHg 34%
    15:00 +39°C° 0 mm 5 mps 720 mmHg 36%
    16:00 +37°C° 0 mm 4 mps 720 mmHg 38%
    17:00 +36°C° 0 mm 3 mps 720 mmHg 40%
    18:00 +34°C° 0.6 mm 3 mps 720 mmHg 49%
    19:00 +31°C° 0.6 mm 3 mps 721 mmHg 57%
    20:00 +29°C° 0.6 mm 2 mps 722 mmHg 66%
    21:00 +28°C° 1.5 mm 3 mps 723 mmHg 72%
    22:00 +27°C° 1.5 mm 3 mps 723 mmHg 79%
    23:00 +26°C° 1.5 mm 3 mps 724 mmHg 85%

    Day after tomorrow, 22 October, Sunday

    Time Temperature Precipitation Wind Pressure Humidity
    00:00 +25°C° 1.7 mm 3 mps 724 mmHg 86%
    01:00 +25°C° 1.7 mm 3 mps 724 mmHg 88%
    02:00 +24°C° 1.7 mm 3 mps 724 mmHg 89%
    03:00 +24°C° 1.1 mm 3 mps 724 mmHg 89%
    04:00 +23°C° 1.1 mm 4 mps 724 mmHg 88%
    05:00 +22°C° 1.1 mm 4 mps 725 mmHg 87%
    06:00 +22°C° 0.6 mm 4 mps 725 mmHg 85%
    07:00 +22°C° 0.6 mm 4 mps 726 mmHg 84%
    08:00 +22°C° 0.6 mm 4 mps 727 mmHg 82%
    09:00 +22°C° 0.4 mm 4 mps 727 mmHg 80%
    10:00 +22°C° 0.4 mm 4 mps 727 mmHg 77%
    11:00 +22°C° 0.4 mm 4 mps 727 mmHg 75%
    12:00 +24°C° 0.1 mm 3 mps 727 mmHg 70%
    13:00 +25°C° 0.1 mm 3 mps 726 mmHg 65%
    14:00 +26°C° 0.1 mm 3 mps 725 mmHg 60%
    15:00 +26°C° 0 mm 3 mps 725 mmHg 56%
    16:00 +27°C° 0 mm 2 mps 724 mmHg 52%
    17:00 +28°C° 0 mm 2 mps 724 mmHg 48%
    18:00 +27°C° 0 mm 2 mps 724 mmHg 51%
    19:00 +26°C° 0 mm 1 mps 724 mmHg 53%
    20:00 +25°C° 0 mm 1 mps 724 mmHg 56%
    21:00 +24°C° 0 mm 1 mps 725 mmHg 56%
    22:00 +24°C° 0 mm 2 mps 725 mmHg 56%
    23:00 +24°C° 0 mm 2 mps 725 mmHg 56%

    23 October, Monday

    Time Temperature Precipitation Wind Pressure Humidity
    00:00 +23°C° 0 mm 1 mps 725 mmHg 58%
    01:00 +23°C° 0 mm 1 mps 724 mmHg 61%
    02:00 +22°C° 0 mm 1 mps 724 mmHg 63%
    03:00 +22°C° 0 mm 1 mps 724 mmHg 65%
    04:00 +21°C° 0 mm 1 mps 724 mmHg 66%
    05:00 +21°C° 0 mm 1 mps 724 mmHg 68%
    06:00 +22°C° 0 mm 1 mps 725 mmHg 63%
    07:00 +23°C° 0 mm 2 mps 725 mmHg 58%
    08:00 +25°C° 0 mm 2 mps 725 mmHg 54%
    09:00 +26°C° 0 mm 2 mps 725 mmHg 48%
    10:00 +28°C° 0 mm 2 mps 725 mmHg 42%
    11:00 +30°C° 0 mm 1 mps 725 mmHg 36%
    12:00 +31°C° 0 mm 1 mps 724 mmHg 35%
    13:00 +32°C° 0 mm 1 mps 723 mmHg 33%
    14:00 +33°C° 0 mm 1 mps 722 mmHg 31%
    15:00 +33°C° 0 mm 1 mps 721 mmHg 34%
    16:00 +32°C° 0 mm 1 mps 721 mmHg 36%
    17:00 +31°C° 0 mm 1 mps 721 mmHg 39%
    18:00 +29°C° 0 mm 1 mps 721 mmHg 43%
    19:00 +27°C° 0 mm 1 mps 722 mmHg 47%
    20:00 +26°C° 0 mm 1 mps 722 mmHg 51%
    21:00 +25°C° 0 mm 1 mps 722 mmHg 52%
    22:00 +25°C° 0 mm 1 mps 722 mmHg 53%
    23:00 +25°C° 0 mm 1 mps 722 mmHg 54%

    24 October, Tuesday

    Time Temperature Precipitation Wind Pressure Humidity
    00:00 +24°C° 0 mm 1 mps 721 mmHg 56%
    01:00 +24°C° 0 mm 1 mps 721 mmHg 57%
    02:00 +22°C° 0 mm 0 mps 720 mmHg 58%
    03:00 +22°C° 0 mm 0 mps 720 mmHg 59%
    04:00 +23°C° 0 mm 1 mps 721 mmHg 60%
    05:00 +23°C° 0 mm 1 mps 721 mmHg 61%
    06:00 +25°C° 0 mm 1 mps 721 mmHg 58%
    07:00 +26°C° 0 mm 1 mps 722 mmHg 54%
    08:00 +28°C° 0 mm 2 mps 723 mmHg 50%
    09:00 +30°C° 0 mm 2 mps 722 mmHg 47%
    10:00 +33°C° 0 mm 3 mps 722 mmHg 43%
    11:00 +34°C° 0 mm 4 mps 722 mmHg 39%
    12:00 +35°C° 0 mm 4 mps 721 mmHg 38%
    13:00 +35°C° 0 mm 4 mps 720 mmHg 36%
    14:00 +36°C° 0 mm 4 mps 720 mmHg 35%
    15:00 +35°C° 0 mm 4 mps 719 mmHg 37%
    16:00 +35°C° 0 mm 3 mps 719 mmHg 39%
    17:00 +34°C° 0 mm 3 mps 719 mmHg 41%
    18:00 +31°C° 0 mm 2 mps 719 mmHg 46%
    19:00 +30°C° 0 mm 2 mps 720 mmHg 52%
    20:00 +28°C° 0 mm 1 mps 721 mmHg 57%
    21:00 +27°C° 0 mm 1 mps 721 mmHg 59%
    22:00 +27°C° 0 mm 1 mps 721 mmHg 61%
    23:00 +26°C° 0 mm 1 mps 721 mmHg 63%

    25 October, Wednesday

    Time Temperature Precipitation Wind Pressure Humidity
    00:00 +26°C° 0 mm 1 mps 720 mmHg 64%
    01:00 +26°C° 0 mm 1 mps 720 mmHg 66%
    02:00 +25°C° 0 mm 2 mps 720 mmHg 67%
    03:00 +25°C° 0 mm 2 mps 720 mmHg 68%
    04:00 +25°C° 0 mm 2 mps 720 mmHg 70%
    05:00 +25°C° 0 mm 2 mps 720 mmHg 71%
    06:00 +26°C° 0 mm 3 mps 721 mmHg 66%
    07:00 +28°C° 0 mm 3 mps 721 mmHg 62%
    08:00 +29°C° 0 mm 3 mps 722 mmHg 57%
    09:00 +32°C° 0 mm 4 mps 721 mmHg 51%
    10:00 +34°C° 0 mm 5 mps 721 mmHg 45%
    11:00 +36°C° 0 mm 5 mps 721 mmHg 39%
    12:00 +37°C° 0 mm 5 mps 720 mmHg 37%
    13:00 +39°C° 0 mm 5 mps 719 mmHg 35%
    14:00 +40°C° 0 mm 6 mps 718 mmHg 33%
    15:00 +39°C° 0 mm 5 mps 718 mmHg 34%
    16:00 +37°C° 0 mm 5 mps 717 mmHg 35%
    17:00 +37°C° 0 mm 4 mps 717 mmHg 37%
    18:00 +35°C° 0 mm 3 mps 718 mmHg 40%
    19:00 +34°C° 0 mm 3 mps 718 mmHg 44%
    20:00 +31°C° 0 mm 2 mps 718 mmHg 48%
    21:00 +31°C° 0 mm 2 mps 719 mmHg 49%
    22:00 +30°C° 0 mm 3 mps 719 mmHg 49%
    23:00 +30°C° 0 mm 3 mps 719 mmHg 50%
    Show more